Vorticity
8 8 7 6 6 5 4 4 4 4 5 5 6 6 6 7 7 6 6 6 6 7 7 7 8 7 6 5 5 6 8 9 9 8 7 4 3 3 4 5 6 7 7 7 8 8 8 8 8 8 8 8 7 7 8 8 8 8 8 9 9 8 8 9 9 9 9 9 9
6 7 7 6 5 5 4 4 4 5 5 5 6 6 6 6 6 6 6 7 7 8 8 8 7 5 4 4 6 7 8 8 7 6 4 3 2 3 5 6 7 7 7 8 8 8 8 8 8 8 8 8 8 8 8 8 8 8 8 9 9 8 9 9 9 9 9 9 9
5 6 6 6 5 5 5 5 5 5 5 6 6 6 6 6 6 6 7 7 8 8 9 8 6 5 4 5 7 8 7 6 5 4 3 3 4 5 6 7 7 7 8 8 8 8 8 8 8 8 8 8 8 8 8 8 8 9 9 8 8 9 9 9 9 9 9 10 10
4 5 5 5 5 5 5 5 5 5 6 6 6 6 6 6 5 6 6 7 7 7 7 5 5 6 7 8 8 7 6 5 4 4 4 4 5 5 6 7 7 7 7 8 8 8 8 8 8 8 8 8 8 8 8 8 8 9 9 8 8 8 9 9 9 9 10 10 10
4 4 5 5 5 5 5 5 5 6 6 6 6 6 6 6 6 6 7 7 7 6 6 6 7 8 9 9 8 7 5 5 5 4 5 5 5 6 6 7 7 7 7 7 7 7 7 7 7 7 7 7 8 8 8 8 8 9 9 8 9 9 9 9 10 10 9 9 9
4 4 4 5 5 5 5 5 5 6 6 7 6 6 6 6 7 7 7 7 6 6 7 8 8 9 8 8 6 5 5 4 4 5 5 5 6 6 6 6 6 6 6 6 6 7 7 7 7 7 7 7 7 8 8 8 8 8 8 9 9 9 9 9 10 10 9 9 9
4 4 4 4 4 4 4 5 6 6 7 7 7 6 6 7 7 7 7 6 7 7 8 9 9 9 8 6 5 5 4 4 5 5 6 6 6 6 6 6 6 6 6 6 6 6 7 7 7 7 7 7 7 8 8 9 8 8 8 8 9 9 9 9 9 9 9 9 10
5 4 4 4 4 4 5 5 6 7 7 7 7 7 7 7 8 7 7 8 8 9 9 9 9 8 7 6 5 5 5 5 6 6 6 6 6 6 6 5 5 5 5 6 6 6 6 6 6 6 6 7 8 9 9 9 8 8 8 8 9 9 9 9 9 9 9 9 10
6 6 5 5 4 5 5 6 7 7 7 7 7 7 7 8 8 8 8 9 9 9 9 9 8 7 6 6 5 5 6 6 6 6 6 6 6 5 5 5 5 5 5 6 6 6 6 6 6 6 7 7 8 9 9 9 8 8 8 9 9 9 9 9 8 8 9 9 9
8 7 6 6 5 6 6 7 8 8 8 7 7 8 8 8 8 8 9 8 8 8 9 8 8 7 7 6 6 6 6 6 6 6 5 5 5 5 5 5 5 5 5 6 6 6 6 6 6 7 8 9 9 9 9 9 8 8 9 9 9 9 9 9 8 9 9 9 9
9 8 8 7 7 7 7 8 8 8 8 8 8 8 9 9 9 8 8 7 8 8 8 8 8 8 7 7 6 6 6 6 6 6 5 5 5 5 5 5 5 5 6 6 6 6 6 6 7 8 8 9 9 9 9 9 8 8 9 9 9 8 8 8 8 9 9 9 8
10 10 9 9 8 8 8 8 8 8 8 8 9 9 9 9 9 8 7 8 9 9 8 8 9 8 7 7 7 6 6 6 6 6 6 5 5 5 5 5 6 6 6 6 6 6 7 7 8 8 9 10 10 9 9 8 8 8 9 9 8 8 8 8 8 8 8 7 7
11 11 10 10 9 9 9 9 9 9 9 9 9 9 9 8 7 7 8 9 9 8 9 9 9 9 8 7 7 6 6 6 6 6 6 5 5 5 6 6 6 6 6 6 6 7 8 8 9 9 10 10 9 9 8 8 8 9 9 8 8 7 7 7 7 7 7 6 5
12 11 11 10 10 9 9 9 9 9 9 9 9 9 8 7 7 8 8 9 9 9 9 10 9 8 7 6 6 6 6 6 6 6 6 6 6 6 6 6 6 6 6 6 7 8 9 10 10 10 10 9 9 9 9 9 9 9 8 8 8 7 7 7 7 6 6 5 4
11 11 10 10 10 9 9 9 10 10 10 9 9 8 8 7 7 7 8 8 9 9 9 9 8 7 6 6 6 6 7 6 6 6 6 6 6 6 6 6 6 6 6 7 8 10 11 11 11 10 9 9 9 9 9 9 9 9 8 8 7 7 7 7 6 5 5 5 4
11 10 10 10 9 10 10 10 10 10 9 9 8 8 8 7 7 7 7 8 7 7 8 8 7 6 6 6 7 7 7 6 6 6 6 6 7 6 6 6 6 6 7 8 10 12 13 12 11 10 10 9 9 9 10 10 9 9 8 7 7 7 6 6 5 5 4 4 5
10 10 9 9 9 9 10 10 10 9 9 8 8 8 8 9 9 9 9 8 7 7 7 7 6 6 7 7 7 7 7 6 6 7 7 7 6 6 6 5 6 7 9 11 13 14 13 12 12 11 11 10 10 10 10 10 9 8 7 6 6 6 5 5 5 4 4 5 5
9 9 9 9 9 9 9 9 9 9 8 8 8 8 9 10 11 11 11 10 9 8 7 7 7 7 7 7 7 7 7 6 7 7 7 6 6 5 5 6 7 9 11 13 15 15 14 12 12 12 11 11 11 10 9 8 7 6 6 5 5 5 4 4 4 4 5 5 6
9 9 9 9 9 9 9 9 9 8 8 8 8 8 9 10 11 11 11 9 8 8 8 7 7 7 7 7 7 7 7 7 7 6 6 6 5 5 6 7 9 11 13 15 16 16 15 13 12 11 11 10 9 8 7 6 5 5 5 4 4 4 4 4 4 5 5 6 6
8 8 8 9 9 9 9 9 8 8 8 8 8 8 9 10 10 10 8 7 7 8 8 8 8 7 7 7 7 6 6 7 6 6 5 5 5 7 8 10 11 13 14 15 15 14 13 12 11 10 9 8 7 6 5 4 4 4 4 3 3 3 4 4 5 6 6 6 7
8 8 8 9 9 9 8 8 8 8 9 9 9 9 9 9 8 7 7 6 8 8 8 8 8 8 7 7 7 6 6 6 6 5 4 5 7 9 10 11 12 13 14 14 13 13 11 10 8 7 6 5 4 4 3 3 3 3 3 3 3 4 5 5 6 7 7 7 7
8 8 9 9 9 8 8 8 9 11 11 12 11 11 10 9 8 7 7 8 9 9 9 9 9 8 8 7 7 6 6 5 4 4 4 6 9 10 12 13 13 13 13 13 12 10 8 6 5 4 3 3 3 3 3 3 3 3 3 3 4 5 6 6 7 7 7 7 7
9 9 9 9 8 9 9 10 11 12 12 12 11 10 10 9 9 9 10 10 10 10 10 10 9 8 7 7 6 6 4 3 3 4 6 9 10 12 13 13 13 12 11 10 9 7 5 3 2 2 2 2 2 3 3 3 3 3 3 4 5 6 7 7 7 7 7 7 7
9 9 9 8 9 11 12 12 11 11 11 10 10 10 10 10 11 11 11 11 11 11 10 9 7 6 6 7 6 4 3 1 3 6 9 11 12 12 12 12 11 10 9 7 5 3 2 1 1 1 2 2 3 3 3 3 3 3 4 5 6 7 7 7 7 7 7 7 8
9 9 10 11 13 13 13 13 11 10 9 9 10 11 11 12 12 12 12 12 11 9 8 6 6 6 7 7 5 2 1 2 5 8 10 12 13 12 11 10 9 8 6 4 2 1 0 1 1 2 2 3 3 3 2 2 3 4 5 6 7 7 7 7 7 7 8 8 8
11 12 14 15 15 13 12 11 10 9 9 10 11 11 11 12 12 11 11 10 8 6 5 6 7 8 7 5 2 1 2 4 8 11 12 12 12 11 10 9 7 5 2 0 -0 -0 -0 1 2 2 3 3 3 2 3 3 5 6 7 7 7 7 7 7 7 8 8 9 9
15 16 15 14 11 9 9 9 9 9 10 10 11 11 11 10 10 9 9 7 5 5 6 9 9 8 5 1 -1 1 4 8 11 13 13 12 11 10 10 8 5 2 0 -1 -1 -0 1 2 2 3 3 3 2 3 4 5 6 7 8 8 8 8 8 8 8 8 9 9 9
15 13 10 7 5 6 7 8 9 10 10 10 10 9 8 7 7 7 6 5 6 8 10 12 9 4 0 -2 -0 3 7 11 13 13 12 11 11 10 8 5 2 1 -0 -0 0 1 2 3 3 3 2 2 3 4 6 7 8 8 8 8 8 8 8 8 9 9 9 9 9
9 7 4 1 1 3 6 8 9 10 10 8 5 3 2 3 5 5 6 7 9 12 13 10 4 -0 -2 -1 3 7 11 13 13 12 11 11 10 7 5 2 1 0 -0 0 1 2 3 3 3 3 3 4 5 6 7 8 8 8 8 8 8 8 8 9 9 9 9 9 9
3 1 -1 -3 -0 3 6 9 12 12 10 2 -4 -6 -3 2 4 5 7 10 13 14 11 4 -0 -2 -1 2 6 10 12 13 12 11 9 8 5 3 1 -0 -0 0 1 1 2 3 3 3 3 4 5 6 7 8 8 8 8 8 8 8 8 9 9 10 10 10 9 9 9
-4 -6 -6 -2 3 5 7 10 19 21 14 -4 -11 -10 -3 2 5 8 11 15 14 10 5 0 -1 0 3 6 9 12 12 12 10 8 6 3 1 0 -0 -0 1 1 2 3 3 3 3 3 4 6 7 8 8 8 8 8 8 8 8 9 9 9 10 10 10 9 9 9 9
-12 -12 -5 6 10 9 7 8 18 20 15 2 -2 -2 1 3 7 12 15 13 8 4 1 1 2 4 7 10 12 13 11 9 7 5 2 0 -0 0 1 2 3 3 4 4 3 4 4 5 7 8 8 9 9 8 8 8 8 8 9 9 10 10 10 10 9 9 9 8 8
-14 -11 -1 9 12 12 10 8 9 10 9 5 3 2 4 8 13 13 10 5 2 1 1 3 6 9 11 13 12 11 9 6 4 1 0 -0 1 2 4 4 4 4 4 4 4 5 6 7 8 8 9 9 8 8 8 8 9 9 10 10 10 10 10 9 9 9 8 8 7
-14 -13 -4 7 11 11 10 8 6 5 3 2 3 7 11 15 11 6 3 1 2 4 6 9 12 13 13 12 10 8 5 3 1 1 1 3 4 5 5 5 4 4 4 5 6 7 8 9 9 9 9 8 8 9 9 9 10 10 10 10 10 10 10 9 9 8 7 7 6
-7 -4 2 9 10 9 7 4 3 2 2 3 7 10 10 7 4 3 3 5 7 10 13 15 15 13 11 9 6 4 2 1 1 2 4 5 5 5 4 4 4 5 6 7 8 9 9 9 9 9 9 9 9 9 9 10 10 10 10 10 10 10 9 9 8 7 6 5 5
13 12 11 9 6 4 2 0 0 2 5 8 9 9 8 6 5 6 8 11 13 15 15 13 11 9 7 4 3 2 2 2 3 4 4 4 4 4 4 5 6 7 8 8 9 9 9 9 9 9 9 9 9 10 10 10 10 10 10 10 9 9 8 7 6 6 5 5 5
11 9 6 3 1 0 0 1 3 6 8 10 10 9 9 9 10 12 13 14 14 13 11 9 7 5 4 3 3 3 3 3 4 4 4 4 4 5 6 7 8 9 9 9 9 9 9 9 9 9 9 10 10 10 10 10 10 10 10 9 9 8 7 6 5 5 5 4 4
5 4 2 1 0 1 2 4 5 7 8 8 9 10 11 13 14 14 14 13 12 9 7 6 5 4 4 4 3 3 3 3 3 4 4 5 6 7 8 9 9 9 9 9 9 9 9 9 9 10 10 10 10 10 10 10 10 10 9 8 7 6 6 5 5 5 5 4 4
6 5 2 1 1 2 4 5 6 7 8 9 10 12 14 15 16 15 13 12 9 7 6 5 5 5 4 4 4 3 3 4 4 5 6 7 8 8 8 9 9 9 9 9 9 9 9 10 10 10 10 11 10 10 10 10 9 9 8 7 6 5 5 5 5 4 4 4 4
9 4 0 -1 0 3 5 7 8 9 11 13 14 16 16 16 15 13 11 9 8 7 6 5 5 4 4 4 4 4 5 6 7 7 8 8 9 9 9 9 9 9 9 9 9 10 10 10 10 10 11 11 10 10 9 9 8 7 6 6 5 5 5 5 4 4 4 3 4
4 -1 -3 -2 1 3 6 8 10 12 14 16 17 16 15 13 11 9 8 7 7 6 5 5 4 4 4 4 5 6 7 8 8 9 9 9 9 9 9 9 9 9 9 10 10 10 10 10 10 11 10 10 10 9 8 8 7 6 6 5 5 5 5 4 4 4 3 4 4
Height
5712 5712 5712 5712 5712 5712 5712 5712 5713 5714 5715 5715 5716 5716 5716 5716 5716 5716 5716 5717 5717 5717 5717 5717 5717 5717 5717 5716 5716 5716 5716 5716 5715 5715 5715 5715 5714 5714 5713 5713 5712 5711 5711 5710 5709 5708 5707 5707 5706 5705 5704 5703 5702 5701 5700 5699 5698 5697 5696 5695 5693 5692 5691 5690 5688 5687 5686 5685 5684
5708 5708 5708 5708 5708 5708 5709 5710 5711 5712 5712 5713 5713 5713 5713 5713 5713 5713 5714 5714 5715 5715 5715 5715 5714 5714 5714 5713 5713 5713 5713 5713 5713 5713 5712 5712 5712 5712 5711 5710 5710 5709 5708 5707 5707 5706 5705 5704 5703 5702 5701 5700 5699 5698 5697 5696 5695 5694 5692 5691 5690 5689 5687 5686 5685 5684 5682 5681 5680
5705 5705 5705 5705 5705 5706 5706 5707 5708 5709 5710 5710 5711 5711 5711 5711 5711 5711 5712 5712 5712 5712 5712 5712 5712 5711 5711 5711 5711 5711 5711 5711 5710 5710 5710 5710 5710 5709 5709 5708 5707 5707 5706 5705 5704 5703 5702 5701 5700 5699 5698 5697 5696 5695 5694 5693 5692 5690 5689 5688 5687 5685 5684 5683 5682 5680 5679 5677 5676
5701 5701 5702 5702 5702 5703 5704 5705 5706 5707 5707 5707 5708 5708 5707 5708 5708 5709 5709 5710 5710 5710 5710 5710 5709 5708 5708 5708 5708 5708 5708 5708 5708 5708 5708 5708 5707 5707 5706 5706 5705 5704 5703 5702 5701 5700 5699 5698 5697 5696 5695 5694 5693 5692 5691 5690 5688 5687 5686 5684 5683 5682 5681 5679 5678 5677 5675 5674 5673
5697 5698 5698 5699 5700 5700 5701 5702 5703 5704 5704 5705 5705 5705 5705 5705 5706 5706 5707 5707 5708 5708 5707 5707 5706 5706 5706 5706 5706 5706 5706 5706 5706 5706 5705 5705 5705 5705 5704 5703 5702 5701 5700 5699 5698 5697 5696 5695 5694 5693 5692 5691 5690 5689 5688 5687 5685 5684 5682 5681 5680 5678 5677 5676 5675 5673 5672 5671 5669
5694 5695 5695 5696 5697 5698 5699 5700 5701 5701 5702 5702 5702 5702 5702 5703 5703 5704 5705 5705 5705 5705 5705 5704 5704 5704 5704 5704 5704 5704 5704 5704 5703 5703 5703 5703 5702 5702 5701 5700 5699 5698 5697 5697 5696 5694 5693 5692 5691 5690 5689 5688 5687 5686 5684 5683 5682 5681 5679 5678 5677 5675 5674 5672 5671 5670 5668 5667 5666
5691 5692 5692 5693 5694 5695 5696 5697 5698 5698 5699 5699 5699 5700 5700 5701 5701 5702 5702 5702 5702 5702 5702 5702 5701 5702 5702 5702 5702 5702 5702 5701 5701 5701 5701 5701 5700 5699 5699 5697 5697 5696 5695 5694 5692 5692 5691 5689 5688 5687 5686 5685 5684 5682 5681 5680 5679 5677 5676 5675 5673 5672 5671 5669 5668 5667 5665 5664 5662
5687 5688 5689 5690 5692 5693 5694 5695 5695 5696 5696 5696 5697 5697 5698 5698 5699 5699 5699 5700 5699 5699 5699 5699 5699 5699 5699 5699 5699 5699 5699 5699 5699 5699 5699 5698 5697 5697 5696 5695 5694 5693 5692 5691 5690 5689 5687 5686 5685 5684 5683 5682 5681 5679 5678 5677 5675 5674 5673 5671 5670 5669 5667 5666 5664 5663 5662 5660 5659
5684 5685 5687 5687 5689 5690 5691 5692 5692 5693 5693 5694 5694 5695 5695 5696 5696 5697 5697 5697 5697 5696 5696 5697 5697 5697 5697 5697 5697 5697 5697 5697 5697 5697 5696 5696 5695 5694 5693 5692 5691 5690 5689 5688 5687 5686 5684 5683 5682 5681 5680 5678 5677 5676 5675 5673 5672 5671 5669 5668 5666 5665 5664 5662 5661 5660 5658 5657 5656
5681 5682 5684 5685 5687 5688 5689 5689 5690 5690 5691 5691 5692 5692 5693 5693 5694 5694 5694 5694 5694 5694 5694 5694 5694 5694 5695 5695 5695 5695 5695 5695 5694 5694 5694 5693 5692 5691 5690 5689 5688 5687 5686 5685 5684 5683 5682 5680 5679 5678 5677 5675 5674 5673 5672 5670 5669 5667 5666 5665 5663 5662 5660 5658 5657 5656 5655 5653 5652
5678 5679 5681 5683 5684 5685 5686 5686 5687 5687 5688 5688 5689 5690 5690 5691 5691 5691 5691 5691 5691 5691 5692 5692 5692 5692 5692 5692 5692 5692 5692 5692 5692 5691 5691 5690 5689 5688 5687 5687 5686 5684 5683 5682 5681 5680 5678 5677 5676 5675 5673 5672 5671 5670 5668 5667 5666 5664 5663 5661 5660 5658 5657 5655 5654 5652 5651 5650 5648
5675 5677 5679 5681 5682 5682 5683 5684 5684 5685 5686 5686 5687 5687 5688 5688 5688 5688 5688 5688 5689 5689 5689 5689 5690 5690 5690 5690 5690 5690 5690 5689 5689 5689 5688 5687 5687 5686 5685 5684 5683 5682 5680 5679 5678 5677 5676 5674 5673 5672 5671 5669 5668 5667 5666 5664 5663 5661 5660 5658 5657 5655 5654 5652 5650 5649 5647 5646 5645
5673 5675 5677 5678 5679 5679 5680 5681 5682 5682 5683 5684 5685 5685 5686 5686 5686 5686 5686 5686 5686 5687 5687 5687 5687 5687 5687 5687 5687 5687 5687 5687 5687 5686 5685 5685 5684 5683 5682 5681 5680 5679 5677 5676 5675 5674 5672 5671 5670 5669 5667 5666 5665 5664 5662 5661 5660 5658 5657 5655 5654 5652 5650 5649 5647 5646 5644 5643 5641
5672 5673 5674 5675 5676 5677 5678 5679 5680 5680 5681 5682 5682 5682 5683 5683 5683 5683 5683 5683 5684 5684 5684 5685 5685 5685 5685 5685 5685 5685 5685 5684 5684 5683 5683 5682 5681 5680 5679 5678 5677 5676 5674 5673 5672 5671 5669 5668 5667 5666 5664 5663 5662 5661 5659 5658 5657 5655 5653 5652 5650 5649 5647 5645 5644 5642 5641 5639 5637
5670 5671 5671 5672 5673 5674 5676 5677 5677 5678 5679 5679 5680 5680 5680 5680 5680 5681 5681 5681 5681 5682 5682 5682 5682 5682 5682 5682 5682 5682 5682 5682 5681 5681 5680 5679 5678 5677 5676 5675 5674 5673 5672 5670 5669 5667 5666 5665 5664 5663 5662 5660 5659 5658 5656 5655 5653 5652 5650 5648 5647 5645 5644 5642 5641 5639 5637 5636 5634
5667 5668 5669 5670 5671 5672 5673 5674 5675 5676 5677 5677 5677 5678 5678 5678 5678 5678 5678 5679 5679 5679 5679 5679 5680 5680 5680 5680 5680 5680 5679 5679 5678 5678 5677 5676 5675 5674 5673 5672 5671 5669 5668 5667 5666 5664 5663 5662 5661 5660 5659 5657 5656 5654 5653 5652 5650 5648 5647 5645 5643 5642 5640 5639 5637 5635 5634 5632 5630
5664 5665 5667 5668 5669 5670 5671 5672 5673 5673 5674 5674 5675 5675 5675 5675 5675 5676 5676 5676 5676 5676 5676 5677 5677 5677 5677 5677 5677 5677 5677 5676 5676 5675 5674 5673 5672 5671 5670 5669 5667 5666 5665 5664 5662 5661 5660 5659 5658 5657 5656 5654 5653 5651 5650 5648 5647 5645 5643 5642 5640 5638 5637 5635 5633 5632 5630 5628 5626
5662 5663 5664 5666 5667 5668 5669 5670 5671 5671 5672 5672 5672 5672 5672 5673 5673 5673 5674 5674 5673 5674 5674 5674 5674 5675 5675 5675 5675 5675 5674 5674 5673 5672 5671 5670 5669 5668 5667 5666 5664 5663 5662 5661 5659 5658 5657 5656 5655 5654 5652 5651 5649 5648 5647 5645 5643 5642 5640 5638 5637 5635 5633 5632 5630 5628 5626 5624 5622
5660 5661 5662 5664 5665 5666 5667 5668 5668 5669 5669 5669 5670 5670 5670 5671 5671 5671 5671 5671 5672 5672 5672 5672 5672 5672 5672 5672 5672 5672 5672 5671 5670 5669 5668 5667 5666 5665 5664 5662 5661 5660 5659 5657 5656 5655 5654 5653 5652 5651 5649 5648 5647 5645 5643 5642 5640 5638 5637 5635 5633 5632 5630 5628 5626 5624 5622 5620 5618
5658 5659 5661 5662 5663 5664 5665 5666 5666 5667 5667 5667 5667 5668 5668 5669 5669 5669 5669 5669 5670 5670 5670 5670 5670 5670 5670 5670 5670 5669 5669 5668 5667 5666 5665 5664 5663 5662 5661 5659 5658 5657 5656 5654 5653 5652 5651 5650 5649 5648 5646 5645 5643 5642 5640 5639 5637 5635 5634 5632 5630 5628 5626 5624 5622 5620 5618 5616 5614
5656 5657 5659 5660 5661 5662 5662 5663 5664 5664 5664 5665 5665 5666 5666 5667 5667 5667 5667 5667 5667 5667 5667 5667 5667 5667 5667 5667 5667 5667 5666 5665 5664 5663 5662 5661 5660 5659 5657 5656 5655 5654 5652 5652 5650 5649 5648 5647 5646 5645 5643 5642 5640 5639 5637 5636 5634 5632 5631 5629 5627 5625 5622 5621 5618 5616 5614 5612 5610
5654 5656 5657 5658 5659 5660 5660 5661 5661 5662 5662 5662 5663 5663 5664 5664 5665 5665 5665 5665 5665 5665 5665 5665 5665 5665 5665 5665 5664 5664 5663 5662 5661 5660 5659 5658 5657 5656 5655 5653 5652 5651 5650 5648 5647 5647 5645 5644 5643 5642 5640 5639 5637 5636 5634 5632 5631 5629 5627 5625 5623 5621 5619 5617 5615 5612 5610 5608 5606
5653 5654 5655 5656 5657 5657 5657 5658 5659 5660 5661 5661 5661 5661 5662 5662 5662 5662 5662 5662 5663 5663 5663 5663 5663 5662 5662 5662 5662 5661 5660 5659 5658 5657 5656 5655 5654 5653 5652 5651 5649 5648 5647 5646 5645 5644 5643 5642 5640 5639 5637 5636 5634 5632 5631 5629 5627 5626 5624 5622 5620 5617 5615 5613 5611 5609 5606 5604 5602
5651 5652 5653 5653 5654 5655 5656 5657 5657 5658 5659 5659 5659 5659 5660 5660 5660 5660 5660 5661 5661 5661 5661 5660 5660 5660 5660 5659 5659 5658 5657 5656 5655 5654 5653 5652 5651 5650 5649 5648 5647 5645 5644 5643 5642 5641 5640 5639 5637 5636 5634 5633 5631 5629 5627 5626 5624 5622 5620 5618 5616 5614 5612 5609 5607 5605 5602 5600 5597
5649 5650 5651 5652 5653 5654 5654 5655 5656 5656 5657 5657 5657 5657 5658 5658 5658 5658 5658 5658 5658 5658 5658 5658 5657 5657 5657 5657 5656 5655 5654 5653 5652 5651 5650 5649 5648 5647 5646 5645 5644 5642 5642 5641 5640 5639 5637 5636 5634 5633 5631 5629 5627 5626 5624 5622 5620 5618 5616 5614 5612 5610 5608 5605 5603 5601 5598 5596 5593
5647 5648 5649 5651 5652 5652 5653 5653 5654 5654 5654 5655 5655 5656 5656 5656 5656 5657 5657 5656 5656 5656 5656 5655 5655 5655 5655 5654 5653 5652 5651 5650 5649 5648 5647 5647 5646 5645 5644 5642 5641 5640 5639 5638 5637 5636 5635 5633 5632 5630 5628 5626 5624 5622 5620 5618 5616 5614 5612 5610 5608 5606 5604 5602 5599 5597 5594 5592 5589
5646 5647 5648 5649 5650 5651 5652 5652 5652 5652 5652 5653 5653 5653 5654 5654 5654 5654 5654 5654 5654 5653 5653 5653 5653 5652 5652 5651 5650 5649 5648 5647 5647 5646 5645 5644 5643 5642 5641 5640 5639 5638 5637 5636 5635 5633 5632 5630 5628 5626 5625 5623 5621 5619 5617 5615 5612 5611 5608 5606 5604 5602 5600 5598 5596 5593 5590 5587 5585
5645 5646 5647 5647 5648 5649 5649 5650 5650 5650 5651 5651 5651 5652 5652 5652 5652 5652 5652 5652 5652 5651 5651 5651 5651 5650 5649 5648 5647 5646 5646 5645 5644 5643 5642 5641 5640 5640 5639 5638 5637 5636 5635 5633 5632 5630 5628 5627 5625 5623 5621 5619 5617 5616 5613 5611 5609 5607 5605 5603 5601 5598 5596 5594 5592 5589 5586 5583 5581
5643 5644 5645 5646 5647 5647 5647 5648 5648 5649 5649 5649 5650 5650 5650 5650 5650 5650 5650 5650 5649 5649 5649 5649 5648 5647 5646 5645 5645 5644 5643 5642 5641 5641 5640 5639 5638 5637 5636 5636 5635 5633 5632 5630 5628 5627 5625 5623 5622 5620 5618 5616 5614 5612 5610 5608 5606 5603 5601 5599 5597 5594 5592 5590 5587 5584 5582 5579 5576
5641 5642 5644 5645 5645 5646 5646 5646 5646 5646 5647 5647 5648 5648 5648 5648 5648 5648 5648 5647 5647 5647 5647 5646 5645 5644 5644 5643 5642 5642 5641 5640 5639 5638 5637 5636 5636 5635 5634 5633 5632 5630 5628 5627 5625 5623 5622 5620 5618 5616 5614 5612 5610 5608 5606 5604 5602 5600 5598 5595 5593 5591 5588 5585 5583 5580 5577 5575 5572
5640 5642 5642 5643 5644 5644 5644 5645 5645 5644 5645 5645 5646 5646 5646 5646 5646 5646 5646 5646 5646 5645 5644 5644 5643 5642 5642 5641 5640 5639 5638 5637 5637 5636 5635 5634 5633 5632 5631 5630 5629 5627 5625 5623 5622 5620 5618 5617 5615 5613 5611 5609 5607 5605 5602 5601 5598 5596 5594 5592 5589 5587 5584 5581 5578 5576 5573 5570 5568
5640 5640 5641 5642 5642 5642 5643 5643 5644 5644 5644 5644 5644 5644 5644 5645 5644 5644 5644 5644 5643 5643 5642 5641 5641 5640 5639 5638 5637 5637 5636 5635 5634 5633 5632 5632 5631 5630 5628 5627 5626 5624 5622 5620 5618 5617 5615 5613 5611 5609 5607 5605 5603 5601 5599 5597 5595 5592 5590 5587 5585 5582 5580 5577 5574 5572 5569 5566 5563
5638 5638 5639 5640 5641 5641 5642 5642 5643 5643 5643 5643 5643 5643 5643 5642 5642 5642 5642 5641 5641 5640 5640 5639 5638 5637 5637 5636 5635 5634 5633 5632 5632 5631 5630 5629 5628 5627 5625 5624 5622 5620 5618 5617 5615 5613 5612 5610 5607 5606 5604 5602 5599 5597 5595 5593 5591 5588 5586 5583 5581 5578 5575 5572 5570 5567 5564 5561 5559
5638 5637 5638 5638 5639 5640 5641 5641 5641 5642 5642 5642 5642 5642 5641 5641 5640 5640 5639 5639 5639 5638 5637 5637 5636 5635 5634 5633 5632 5632 5631 5630 5629 5628 5627 5626 5625 5623 5622 5620 5619 5617 5615 5613 5612 5610 5608 5606 5604 5602 5600 5598 5596 5594 5592 5589 5587 5584 5582 5579 5577 5574 5571 5568 5565 5562 5560 5557 5554
5637 5637 5637 5638 5639 5639 5640 5640 5640 5640 5640 5640 5640 5639 5639 5638 5638 5638 5637 5637 5636 5635 5635 5634 5633 5632 5632 5631 5630 5629 5628 5628 5627 5626 5624 5623 5622 5620 5619 5617 5616 5614 5612 5610 5608 5606 5604 5602 5601 5599 5597 5594 5592 5590 5588 5585 5583 5580 5578 5575 5572 5570 5567 5564 5561 5558 5555 5552 5549
5636 5636 5637 5637 5637 5638 5638 5638 5638 5638 5638 5637 5637 5637 5636 5636 5636 5635 5635 5634 5633 5632 5632 5631 5631 5630 5629 5628 5628 5627 5626 5625 5624 5623 5621 5620 5618 5617 5615 5614 5612 5611 5609 5607 5605 5603 5601 5599 5597 5595 5593 5591 5588 5586 5584 5581 5579 5576 5574 5571 5568 5566 5562 5560 5557 5553 5550 5547 5544
5634 5635 5635 5636 5636 5636 5636 5636 5636 5636 5636 5635 5635 5634 5634 5634 5633 5632 5632 5631 5631 5630 5629 5629 5628 5628 5627 5627 5626 5624 5623 5622 5621 5620 5618 5617 5615 5614 5612 5611 5609 5607 5606 5603 5602 5600 5598 5596 5594 5592 5589 5587 5585 5582 5580 5577 5575 5572 5570 5567 5564 5561 5558 5555 5552 5549 5546 5543 5540
5633 5634 5635 5635 5635 5635 5634 5634 5634 5634 5633 5633 5632 5632 5631 5631 5630 5630 5629 5629 5628 5628 5627 5627 5626 5625 5625 5624 5623 5622 5620 5619 5618 5616 5615 5613 5612 5610 5609 5607 5605 5604 5602 5600 5598 5597 5594 5592 5590 5588 5586 5583 5581 5578 5576 5574 5571 5569 5566 5563 5560 5557 5554 5551 5548 5545 5542 5539 5536
5632 5633 5633 5633 5633 5632 5632 5632 5632 5631 5631 5630 5630 5629 5629 5628 5627 5627 5627 5626 5626 5625 5625 5624 5624 5623 5622 5621 5620 5619 5617 5616 5615 5613 5612 5610 5608 5607 5605 5604 5602 5601 5599 5597 5595 5593 5591 5589 5587 5584 5582 5579 5577 5575 5572 5570 5567 5565 5562 5559 5556 5553 5550 5547 5544 5541 5538 5534 5531
5631 5631 5631 5630 5630 5630 5630 5629 5629 5628 5628 5628 5627 5627 5626 5626 5625 5625 5624 5624 5623 5623 5622 5622 5621 5620 5619 5618 5617 5616 5614 5613 5612 5610 5608 5607 5605 5604 5602 5600 5599 5597 5595 5593 5592 5589 5587 5585 5582 5580 5578 5576 5573 5571 5568 5566 5563 5561 5558 5555 5552 5549 5546 5543 5540 5537 5534 5530 5527
5629 5628 5628 5628 5628 5627 5627 5627 5626 5626 5626 5625 5625 5624 5624 5624 5623 5623 5622 5622 5621 5621 5620 5619 5618 5617 5617 5615 5614 5613 5612 5610 5608 5607 5605 5604 5602 5601 5599 5597 5595 5593 5592 5590 5588 5586 5583 5581 5579 5577 5574 5572 5569 5567 5564 5562 5559 5557 5554 5551 5548 5546 5542 5539 5536 5533 5530 5526 5522